View from above orbital plane
|
View from above satellite
|
Ground track
|
The orbit data is extracted from the following two-line orbital elements,
1 45606U 20029A 21041.72310995 0.00000000 00000-0 00000-0 0 01
2 45606 45.0410 219.7779 0006000 55.8526 304.1470 15.60030263 01
Epoch (UTC): | 10 February 2021 17:21:16 |
Eccentricity: | 0.0006000 |
inclination: | 45.0410° |
perigee height: | 383 km |
apogee height: | 391 km |
right ascension of ascending node: | 219.7779° |
argument of perigee: | 55.8526° |
revolutions per day: | 15.60030263 |
mean anomaly at epoch: | 304.1470° |
orbit number at epoch: | 0 |
The dashed part of the orbit path shows where the satellite is in the earth's shadow,
|
|